TimeCDT,TemperatureF,Dew PointF,Humidity,Sea Level PressureIn,VisibilityMPH,Wind Direction,Wind SpeedMPH,Gust SpeedMPH,PrecipitationIn,Events,Conditions,WindDirDegrees,DateUTC
12:56 AM,50.0,36.0,59,30.20,10.0,SSE,18.4,27.6,N/A,,Overcast,160,2013-04-22 05:56:00
1:56 AM,50.0,36.0,59,30.19,10.0,South,16.1,21.9,N/A,,Overcast,170,2013-04-22 06:56:00
2:56 AM,48.9,37.0,64,30.22,10.0,West,6.9,-,N/A,,Overcast,270,2013-04-22 07:56:00
3:56 AM,48.0,37.9,68,30.21,10.0,Calm,Calm,-,N/A,,Overcast,0,2013-04-22 08:56:00
4:56 AM,46.9,37.9,71,30.21,10.0,Calm,Calm,-,0.00,Rain,Light Rain,0,2013-04-22 09:56:00
5:56 AM,45.0,39.0,80,30.20,10.0,ESE,5.8,-,0.00,,Overcast,110,2013-04-22 10:56:00
6:56 AM,46.0,37.9,73,30.20,10.0,ESE,5.8,-,N/A,,Overcast,110,2013-04-22 11:56:00
7:56 AM,46.9,37.9,71,30.19,10.0,ESE,5.8,-,N/A,,Overcast,120,2013-04-22 12:56:00
8:56 AM,48.9,37.0,64,30.18,10.0,SE,5.8,-,N/A,,Partly Cloudy,130,2013-04-22 13:56:00
9:56 AM,52.0,37.0,57,30.17,10.0,South,6.9,-,N/A,,Partly Cloudy,190,2013-04-22 14:56:00
10:56 AM,54.0,37.0,53,30.17,10.0,South,6.9,-,N/A,,Overcast,190,2013-04-22 15:56:00
11:56 AM,57.0,37.0,47,30.15,10.0,ESE,6.9,-,N/A,,Mostly Cloudy,120,2013-04-22 16:56:00
12:56 PM,57.9,37.0,46,30.13,10.0,South,10.4,-,N/A,,Overcast,190,2013-04-22 17:56:00
1:56 PM,60.1,37.9,44,30.09,10.0,South,5.8,-,N/A,,Overcast,180,2013-04-22 18:56:00
2:56 PM,64.0,39.0,40,30.06,10.0,SSW,9.2,-,N/A,,Mostly Cloudy,200,2013-04-22 19:56:00
3:56 PM,66.0,37.0,34,30.02,10.0,South,16.1,21.9,N/A,,Overcast,170,2013-04-22 20:56:00
4:56 PM,66.0,36.0,33,30.00,10.0,South,13.8,-,N/A,,Overcast,190,2013-04-22 21:56:00
5:56 PM,66.0,39.0,37,29.98,10.0,South,10.4,16.1,N/A,,Partly Cloudy,190,2013-04-22 22:56:00
6:56 PM,64.0,37.0,37,29.97,10.0,SSE,9.2,-,N/A,,Mostly Cloudy,160,2013-04-22 23:56:00
7:56 PM,62.1,36.0,38,29.97,10.0,SSE,10.4,-,N/A,,Mostly Cloudy,160,2013-04-23 00:56:00
8:56 PM,61.0,37.9,42,29.98,10.0,SSE,9.2,-,N/A,,Mostly Cloudy,160,2013-04-23 01:56:00
9:56 PM,60.1,37.9,44,29.98,10.0,South,10.4,-,N/A,,Partly Cloudy,170,2013-04-23 02:56:00
10:56 PM,60.1,37.9,44,29.97,10.0,South,9.2,-,N/A,,Overcast,170,2013-04-23 03:56:00
11:56 PM,57.9,41.0,53,29.98,10.0,WSW,6.9,-,N/A,,Overcast,250,2013-04-23 04:56:00